Погода в Сочи

Погода в Сочи : погода сейчас, прогноз погоды и архив. Всё, что Вы хотите узнать о погоде в Сочи!

Поиск расширенной информации на нашем сайте:

Другие новости

Новости СМИ2

Главная страница сайта

Новости сайта

03.07.2017

Напоминаем, что на нашем специализированном сайте Метеоцентр.Азия вы можете получить высокодетализированные автоматические прогнозы погоды по пунктам России, СНГ и мира в авиационном формате (включающие направление и скорость ветра, видимость, явления погоды, количество и форму облачности, нижнюю и верхнюю границу облачности).


Погода в Сочи - сегодня

Время (UTC), дата Ветер
(°,м/с) 
Видим.   Явления Облачность Т
(°С)
Тd
(°С)
f(%) Тe
(°С)
Pmin
(гПа)
dP
(гПа)
Po
(мм)
O2
(г/м3)
Тmin Tmax R s Состояние
почвы
03 19.05.18 070 (В) 20000 м    10/0 средняя, верхняя 
[Ac trans|Ci fib]
+18.4 +15.3 82 +29  1016.3  -0.3  761  284  +18    0.0     
06 19.05.18 280 (З) 20000 м    9/0 средняя 
[Ac trans]
+21.3 +15.9 71 +31  1016  -0.3  761  281           
09 19.05.18 270 (З) 20000 м    8/0 средняя 
[Ac trans]
+22.9 +17.4 71 +36  1015.9  761  279           
12 19.05.18 280 (З) 20000 м    4/1 1500 м верхняя 
[Cu hum|Cs]
+24 +15.4 59 +33  1014.3  1.6  759  278           
15 19.05.18 300 (СЗ) 20000 м    10/3 1500 м верхняя 
[Cu hum|Ci fib]
+22.8 +16.9 69 +35  1013.3  -1  759  278    +25.2       
18 19.05.18 тихо ()   4000 м    9/0 средняя 
[Ac trans]
+20.7 +17.4 81 +33  1014  0.6  759  280           
21 19.05.18 050 (СВ) 4000 м    5/0 средняя 
[Ac trans]
+18.5 +16.2 86 +29  1014.2  0.2  759  283           
00 20.05.18 090 (В) 4000 м    9/0 средняя 
[Ac trans]
+19 +16.4 85 +32  1013.7  -0.5  759  282           
03 20.05.18 тихо ()   20000 м    9/0 средняя 
[Ac trans]
+18.8 +15.8 83 +29  1013.5  -0.2  759  283  +17.5         
06 20.05.18 150 (ЮВ) 20000 м    9/0 средняя 
[Ac trans]
+24.4 +15.1 56 +33  1013.7  0.3  759  278           
09 20.05.18 200 (Ю) 20000 м    9/1 1500 м средняя 
[Cu med, cong|Ac trans]
+25.6 +14.4 50 +33  1014.5  0.8  760  277           
12 20.05.18 230 (ЮЗ) 20000 м    8/3 1500 м верхняя 
[Cu hum|Ci fib]
+24.6 +17.2 63 +37  1013.3  -1.2  759  277           
15 20.05.18 300 (СЗ) 20000 м    6/1 1500 м верхняя 
[Cu hum|Ci fib]
+23.2 +18.1 73 +37  1013.4  0.1  759  278    +26.9       
18 20.05.18 290 (З) 4000 м    10/0 верхняя 
[Ci fib]
+20.8 +18.6 87 +36  1013.6  0.1  759  280           
21 20.05.18 тихо ()   4000 м    10/0 средняя, верхняя 
[Ac trans|Ci fib]
+19.2 +16 82 +29  1013.7  0.1  759  282           
00 21.05.18 070 (В) 4000 м    10/1 300 м средняя 
[St|Ac und]
+19.1 +16.1 83 +30  1014  0.3  759  282           
03 21.05.18 тихо ()   20000 м    10/0 средняя 
[Ac und]
+19.1 +16.9 87 +31  1015.4  1.4  760  283  +18.9         
06 21.05.18 110 (В) 10 км  слаб. ливневой дождь  10/5 1200 м кучево-дожд., средняя 
[Cb cap|Ac und]
+20 +18.4 91 +35  1016.4  761  281           
09 21.05.18 200 (Ю) 20000 м  {ливн. осадки}  9/4 600 м кучево-дожд., средняя 
[Cb calv|Ac inh]
+22.8 +18.5 77 +38  1017  0.7  761  279           
12 21.05.18 260 (З) 10 км  {ливн. осадки}  8/3 1000 м кучево-дожд., средняя 
[Cb cap|Ac trans]
+23.6 +17.8 70 +37  1017.7  0.7  762  279           
15 21.05.18 250 (З) 10 км    3/3 1000 м кучево-дожд. 
[Cb cap]
+22.6 +17.4 72 +35  1017.9  0.2  762  280    +24.2     
18 21.05.18 340 (С) 4000 м    6/4 700 м кучево-дожд., средняя 
[Cb calv|Ac inh]
+20.6 +17.7 83 +34  1018.4  0.4  762  282           
21 21.05.18 тихо ()   4000 м    4/4 600 м 
[Sc diur, vesp]
+18.9 +17.4 91 +32  1018.2  -0.2  762  283           
00 22.05.18 040 (СВ) 4000 м    6/0 средняя 
[Ac trans]
+19.6 +17.7 89 +34  1018.1  -0.1  762  283           
03 22.05.18 060 (СВ) 10 км    8/3 400 м верхняя 
[St|Ci fib]
+17.6 +15.9 90 +28  1018  -0.1  762  285  +17         
Время (UTC), дата Ветер
(°,м/с) 
Видим.   Явления Облачность Т
(°С)
Тd
(°С)
f(%) Тe
(°С)
Pmin
(гПа)
dP
(гПа)
Po
(мм)
O2
(г/м3)
Тmin Tmax R s Состояние
почвы

Для получения пояснительной информации подведите курсор к названию столбца.

ПОГОДА в Сочи - архив

Всё, что Вы хотите узнать о погоде в Сочи - удобно и подробно!

Выберите нужную дату (начиная с 1 января 2015* года) и нажмите кнопку "Найти".
Будут отображены архивные сводки погоды по пункту Сочи, начиная с указанной даты.


Отображать данные в формате CSV (для использования в таблицах Excel)


Внимание! Наш архив погоды предназначен исключительно для личного некоммерческого использования в познавательных целях. Если Вам необходимы официальные справки о состоянии погоды (для производственных, юридических, коммерческих и т.п. целей), обращайтесь в органы Росгидромета.

*Примечание: данная дата относится к архиву по метеостанциям СССР (Россия, СНГ, Балтия).
Архив по метеостанциям Зарубежной Европы и Азии (кроме Китая) хранится 10 дней, по другим регионам земного шара (Китай, Африка, Америка, Австралия, Океания) - 1 день.

Сочи - район местоположения метеостанции


Название, широта, долгота, высота метеостанции:
Сочи (Адлер) 43.4°ш. 39.9°д. 13 м над ур. моря [Российская Федерация]

Дополнительная информация

В oтличие oт бoльшинства пoгoдных сайтoв мы публикуем пoдрoбную метеoинфoрмацию в детальнoм прoфессиoнальнoм фoрмате.

Характеристики температуры и влажнoсти вoздуха измеряются на высoте 2 м в тени вдали oт зданий и деревьев.
Скoрoсть ветра измеряется на высoте 10 м (на урoвне рoста челoвека скoрoсть ветра ниже в 1.5-2 раза). Если метеoстанция нахoдится в гoрoде или в лесу, тo скoрoсть ветра занижена на 2-4 м/с пo сравнению с oткрытым местoм. Скoрoсть ветра над акватoриями крупных рек и oзёр, а также на вершинах хoлмoв на 2-5 м/с выше, чем в oбычных услoвиях.
Атмoсфернoе давление в разных тoчках местнoсти мoжет значительнo oтличаться oт давления на метеoстанции, в зависимoсти oт услoвий рельефа (при пoдъёме на 10 м давление пoнижается примернo на 1 мм рт.ст.).